Location: Highland Meadows Observing Site
(48.4428°N, 114.5461°W)
Time: 22:58:55
(UTC-06:00)

Gurwin Techsat 1B - Visible Passes

Search period start: 29 July 2014 00:00
Search period end: 08 August 2014 00:00
Orbit: 812 x 815 km, 98.5° (Epoch: 29 July)

Date Brightness Start Highest point End Pass type
(mag) Time Alt. Az. Time Alt. Az. Time Alt. Az.
29 Jul 9.9 04:00:41 10° NNE 04:05:34 36° E 04:10:25 10° SSE visible
30 Jul 10.5 03:38:29 10° NE 03:42:44 24° E 03:46:56 10° SE visible
30 Jul 8.9 05:17:51 10° N 05:23:03 56° WNW 05:28:13 10° SW visible
31 Jul 11.0 03:16:42 10° NE 03:19:48 15° E 03:22:52 10° ESE visible
31 Jul 8.6 04:55:07 10° NNE 05:00:28 84° WNW 05:05:46 10° SSW visible
01 Aug 8.9 04:32:29 10° NNE 04:37:48 66° ESE 04:43:04 10° S visible
02 Aug 9.6 04:10:00 10° NNE 04:15:04 43° E 04:20:05 10° S visible
03 Aug 10.2 03:47:41 10° NE 03:52:15 28° E 03:56:47 10° SSE visible
03 Aug 9.1 05:27:21 10° N 05:32:26 47° WNW 05:37:29 10° SW visible
04 Aug 10.8 03:25:41 10° NE 03:29:21 19° E 03:33:01 10° SE visible
04 Aug 8.7 05:04:34 10° N 05:09:52 70° WNW 05:15:08 10° SSW visible
05 Aug 11.1 03:04:28 10° ENE 03:06:23 12° E 03:08:17 10° ESE visible
05 Aug 8.7 04:41:53 10° NNE 04:47:15 78° ESE 04:52:25 11° S visible
06 Aug 9.3 04:19:20 10° NNE 04:24:32 51° E 04:29:26 11° S visible
07 Aug 10.0 03:56:56 10° NNE 04:01:45 34° E 04:06:27 10° SSE visible
07 Aug 9.3 05:36:52 10° N 05:41:47 39° WNW 05:46:41 10° SW visible
